Other Public Products
Issued by NWS Grand Forks, ND

Home | Current Version | Previous Version | Text Only | Print | Product List | Glossary On
Versions: 1 2 3 4 5 6 7 8 9 10 11 12 13 14 15 16 17 18 19 20 21 22 23 24 25 26 27 28 29 30 31 32 33 34 35 36 37 38 39 40 41 42 43 44 45 46 47 48 49 50
000
FPUS83 KFGF 090131
OPUFGF
PRAIRIE TO PINES WEATHER ROUNDUP
NATIONAL WEATHER SERVICE EASTERN NORTH DAKOTA/GRAND FORKS ND
700 PM CST MON FEB 08 2016

 **SATELLITE DATA USED TO AUGMENT SKY COVER AT AUTOMATED STATIONS**
 *****  WEATHER ACROSS EASTERN NORTH DAKOTA  *****

CITY           SKY/WX    TMP DP  RH WIND       PRES   REMARKS
GRAND FORKS    MOCLDY    10   2  69 N20       30.26R WCI  -9
GRAND FORKS AF CLOUDY    10   3  72 N20G26    30.25S WCI  -8
GRAND CITY NWS NOT AVBL
BUXTON           N/A     10   4  78 N21G33      N/A  WCI -10
DEVILS LAKE    CLEAR     12   8  84 N12       30.24S WCI  -2
FARGO          CLOUDY    11   3  70 N26G32    30.22S BLWGSNOWWCI -10
WAHPETON ARPT  CLOUDY    12   5  73 N23G35    30.19S WCI  -7
$$

 *****  WEATHER ACROSS CENTRAL AND WESTERN NORTH DAKOTA  *****

CITY           SKY/WX    TMP DP  RH WIND       PRES   REMARKS
JAMESTOWN      CLEAR     18  11  74 N16       30.20R WCI   3
BISMARCK       MOCLDY    32  17  54 N13G21    30.25F WCI  22
MINOT          CLEAR     23  13  65 NW10      30.27R WCI  12
MINOT AFB      CLEAR     22  15  76 CALM      30.27R
GARRISON         N/A     27  17  66 NW13      30.26R WCI  16
WILLISTON      CLOUDY    33  21  61 N5        30.29S
DICKINSON      CLOUDY    30  15  53 NW10      30.24S WCI  21
HETTINGER      CLOUDY    33  11  39 N10       30.25F WCI  25
$$

 *****  OTHER OBSERVATIONS NORTHEAST NORTH DAKOTA  *****

CITY           SKY/WX    TMP DP  RH WIND       PRES   REMARKS
WALHALLA       FAIR       9   5  85 N12       30.28S WCI  -6
LANGDON        FAIR       7   3  85 N13       30.23R WCI  -9
CAVALIER       FAIR       9   3  78 N13       30.27S WCI  -7
GRAFTON        CLOUDY     9   3  78 N15       30.29R WCI  -8
CANDO          FAIR      14   9  79 N9        30.27R WCI   2
FORT TOTTEN    NOT AVBL
ROLLA          FAIR      14   7  73 NW16G22   30.23S WCI  -2
RUGBY          FAIR      18   9  68 NW14      30.25S WCI   4
 ***** THE ABOVE OBSERVATIONS ARE NON NWS ARE NOT QUALITY
        CONTROLLED AND MAY MIS-REPORT RAIN FOR SNOW...
$$

 *****  OTHER OBSERVATIONS SOUTHEAST NORTH DAKOTA *****

CITY           SKY/WX    TMP DP  RH WIND       PRES   REMARKS
COOPERSTOWN    NOT AVBL
VALLEY CITY    FAIR      14  10  85 N13       30.22S WCI   0
OAKES          FAIR      18  14  86 N15       30.19S WCI   3
GWINNER        FAIR      18  12  79 N15       30.20R WCI   3
BUFFALO          N/A     10   4  79 N12         N/A  WCI  -5
WYNDMERE         N/A     10   7  85 N14         N/A  WCI  -5
 ***** THE ABOVE OBSERVATIONS ARE NON NWS ARE NOT QUALITY
       CONTROLLED AND MAY MIS-REPORT RAIN FOR SNOW...
$$

  *****  WEATHER ACROSS NORTHERN MINNESOTA  *****

CITY           SKY/WX    TMP DP  RH WIND       PRES   REMARKS
FLAG ISLAND    CLOUDY     7   0  72 N23G30    30.14R WCI -14
WARROAD        CLOUDY     7   1  78 NW13G18   30.15S WCI  -9
ROSEAU         CLOUDY     9   1  72 N14       30.16S WCI  -8
HALLOCK        CLOUDY    10   5  79 NW17      30.24R WCI  -7
THF RVR FALLS  NOT AVBL
HALSTAD          N/A      9   7  90 N24         N/A  WCI -12
FOSSTON        LGT SNOW   7   3  85 NW17G24   30.13S WCI -12
BAUDETTE       FLURRIES   6  -2  69 N15G24    30.09R WCI -12
WASKISH        CLOUDY     7   1  78 NW7       30.09S WCI  -5
CROOKSTON      CLEAR      9   3  78 N24G31    30.22F WCI -12
$$
  *****  WEATHER ACROSS CENTRAL AND WEST MINNESOTA  *****

CITY           SKY/WX    TMP DP  RH WIND       PRES   REMARKS
BEMIDJI        LGT SNOW   7   2  78 NW16      30.07R WCI -11
PARK RAPIDS    LGT SNOW   9   2  73 N18G29    30.04S WCI -10
WADENA         CLOUDY     9   3  78 NW18      30.05S WCI -10
DETROIT LAKES  LGT SNOW  10   7  85 N22G35    30.12S WCI  -9
MOORHEAD       CLOUDY     9   3  78 N22       30.22R WCI -11
FERGUS FALLS   CLOUDY     9   1  72 N21G33    30.18S WCI -11
ELBOW LAKE     CLOUDY     9   1  69 N28G36    30.13S WCI -13
MORRIS MN      CLOUDY    10   1  67 N26G39    30.11S WCI -11
STAPLES        CLOUDY     9   1  72 N21G29    30.04S WCI -11
WHEATON        FLURRIES  12   9  85 NW15      30.20S WCI  -4
$$
  *****  WEATHER ELSEWHERE ACROSS MINNESOTA  *****

CITY           SKY/WX    TMP DP  RH WIND       PRES   REMARKS
DULUTH         FLURRIES   6  -1  73 NW16G26   29.90S WCI -12
INTRNTL FALLS  FLURRIES   4  -3  73 NW18G26   30.05R WCI -16
ELY            FLURRIES   3   0  85 NW9G18    29.91S WCI -11
CLOQUET        CLOUDY     9   1  72 NW16G23   29.94R WCI  -9
BRAINERD       MIX PCPN  10   2  69 N23G29    30.01S WCI -10
HIBBING        LGT SNOW   4  -2  76 NW18G31   29.96R WCI -16
ALEXANDRIA     CLOUDY    10   1  67 NW21G31   30.06S WCI  -9
SAINT CLOUD    CLOUDY    13   3  64 NW16G32   30.00R WCI  -3
MINNEAPOLIS    FLURRIES  15   6  67 NW22G31   29.97R WCI  -3
$$

  *****  WEATHER ACROSS SOUTH DAKOTA  *****

CITY           SKY/WX    TMP DP  RH WIND       PRES   REMARKS
SIOUX FALLS    MOCLDY    22  13  68 N21G30    30.10S WCI   6
BROOKINGS      CLEAR     17  11  77 N15       30.10R WCI   2
WATERTOWN      CLOUDY    17   9  70 N20       30.10S WCI   1
HURON          CLEAR     25  16  68 N12       30.17S WCI  14
SISSETON         N/A     12   9  87 N13       30.17R WCI  -3
ABERDEEN       CLEAR     26  12  55 N16       30.21R WCI  14
MITCHELL       MOCLDY    29  17  61 N16G24    30.18R WCI  17
PIERRE         CLOUDY    34  17  50 N16       30.23R WCI  24
MOBRIDGE       CLOUDY    33  18  53 N16       30.19F WCI  23
RAPID CITY     CLOUDY    38  16  40 N9        30.25R
$$

  *****  SOME WEATHER IN NEARBY STATES *****

CITY           SKY/WX    TMP DP  RH WIND       PRES   REMARKS
GLASGOW MT     MOCLDY    31  24  75 E8        30.27S WCI  23
GREAT FALLS MT MOCLDY    47  28  47 W16       30.34R
CHEYENNE WY    PTCLDY    37  23  56 NW20G35   30.32R
SCOTTSBLUFF NE MOCLDY    38  28  67 NW10      30.30R
OMAHA NE       CLOUDY    25  18  74 N9        30.10S WCI  15
DES MOINES IA  FLURRIES  20   9  62 N20G36    30.02F WCI   4
DAVENPORT IA   CLOUDY    17   8  67 NW23G31   29.88S WCI  -1
CHICAGO IL     CLOUDY    26  19  74 W14       29.74R WCI  14
EAU CLAIRE WI  CLOUDY    13   5  70 NW14G21   29.89S WCI  -2
LA CROSSE WI   LGT SNOW  15  10  80 NW12      29.90S WCI   2
$$

  *****  SOME NATIONAL WEATHER *****

CITY           SKY/WX    TMP DP  RH WIND       PRES   REMARKS
LA GUARDIA NY  LGT SNOW  30  23  75 NE9       29.79S WCI  22
RALEIGH NC     MOCLDY    41  38  89 S3        29.68S
ATLANTA GA     MOCLDY    44  22  41 W16       29.80R
NEW ORLEANS LA PTCLDY    52  16  24 NW18      30.08R
OKLAHOMA CITY  PTCLDY    42  10  27 N18G25    30.24R
ALBUQUERQUE NM PTCLDY    52  20  28 N14       30.34R
SALT LAKE CITY MOCLDY    36  29  75 NW5       30.62F
LOS ANGELES CA CLEAR     79  26  14 SW7       30.07S
BOISE ID       CLEAR     42  33  70 S7        30.63F
SEATTLE WA     MOCLDY    55  44  66 N9        30.34F
$$

*** WEATHER ACROSS MANITOBA...SASKATCHEWAN AND ONTARIO ***
                ***ONTARIO***

CITY           SKY/WX    TMP DP  RH WIND       PRES   REMARKS
GERALDTON      LGT SNOW   0  -6  78 N7        29.82R DRFTSNOWWCI -13
THUNDER BAY    LGT SNOW   7   1  78 NW9       29.88S DRFTSNOWWCI  -7
SIOUX LOOKOUT  FLURRIES   5   0  78 N12G18    30.00R WCI -11
TORONTO        FLURRIES  34  27  75 E18G25    29.59F WCI  23
BIG TROUT LK   CLOUDY    -6 -11  77 N9        30.09R WCI -22
PICKLE LAKE    MOCLDY    -2 -11  65 N8        29.97R WCI -17
DRYDEN         FLURRIES   1  -4  78 N13G20    30.03R WCI -16
KENORA         FLURRIES   0  -6  78 N12G20    30.10S WCI -18
$$
                *** MANITOBA***

CITY           SKY/WX    TMP DP  RH WIND       PRES   REMARKS
BRANDON        PTCLDY     9   3  78 NW8       30.28R WCI  -4
DAUPHIN        CLOUDY    12   7  79 W6        30.30R WCI   3
ISLAND LAKE    FLURRIES   0  -6  78 NW8       30.21R WCI -15
PILOT MOUND      N/A      7   3  85 N7          N/A  WCI  -5
THE PAS        CLOUDY     9   1  72 NW7       30.32R WCI  -3
THOMPSON       CLEAR     -9 -15  77 N7        30.31R WCI -24
WINNIPEG       CLEAR      5  -2  72 N9        30.27S WCI  -9
LYNN LAKE      CLEAR    -15 -18  84 N6        30.32R WCI -29
CHURCHILL      CRYSTALS -17 -24  70 N17G24    30.33R BLWGSNOWWCI -42
GILLAM         CLEAR    -13 -22  64 NW14      30.30R WCI -35
$$
                ***SASKATCHEWAN***

CITY           SKY/WX    TMP DP  RH WIND       PRES   REMARKS
ESTEVAN        MOCLDY    27  21  80 W3        30.27F
KINDERSLEY     MOCLDY    34  28  80 NW9       30.23R
LLOYDMINSTER   MOCLDY    27  23  86 W8        30.22R WCI  18
PRINCE ALBERT  MOCLDY    25  19  80 S2        30.23S
REGINA         CLOUDY    27  21  80 SE6       30.25F WCI  20
YORKTON        CLOUDY    19  12  73 SW5       30.27F WCI  13
N. BATTLEFORD  PTCLDY    27  19  74 NW5       30.24R WCC1F1C2F2C3F3C4F4C5F5C6F6C7F7C8F8C9F9CaFaCbFbCcFcCdFdCe!



USA.gov is the U.S. government's official web portal to all federal, state and local government web resources and services.